TimeEST,TemperatureF,Dew PointF,Humidity,Sea Level PressureIn,VisibilityMPH,Wind Direction,Wind SpeedMPH,Gust SpeedMPH,PrecipitationIn,Events,Conditions,WindDirDegrees,DateUTC
12:06 AM,54.0,52.0,93,30.01,4.0,SSW,8.1,-,0.00,,Mostly Cloudy,200,2013-12-23 05:06:00
12:27 AM,55.9,54.0,93,30.01,10.0,SSW,5.8,-,0.01,Rain,Light Rain,210,2013-12-23 05:27:00
12:39 AM,55.0,53.1,93,30.00,1.8,SW,4.6,-,0.01,Rain,Light Rain,220,2013-12-23 05:39:00
12:47 AM,57.0,55.0,93,30.00,3.0,SSW,4.6,-,0.01,Rain,Light Rain,210,2013-12-23 05:47:00
12:56 AM,57.0,55.0,93,30.00,2.5,SSW,5.8,-,0.02,Rain,Light Rain,210,2013-12-23 05:56:00
1:11 AM,57.9,55.9,93,30.00,10.0,SSW,4.6,-,0.00,Rain,Light Rain,210,2013-12-23 06:11:00
1:18 AM,57.9,55.9,93,30.00,1.8,SSW,5.8,-,0.01,Rain,Light Rain,210,2013-12-23 06:18:00
1:22 AM,57.0,55.0,93,29.99,0.8,SSW,6.9,-,0.01,Rain,Light Rain,200,2013-12-23 06:22:00
1:30 AM,55.0,53.1,93,29.99,0.5,SSW,8.1,-,0.01,Fog-Rain,Light Rain,210,2013-12-23 06:30:00
1:47 AM,57.9,55.9,93,30.01,1.0,SW,6.9,-,0.03,Rain,Light Rain,220,2013-12-23 06:47:00
1:56 AM,57.9,55.9,93,30.02,1.2,SW,6.9,-,0.04,Rain,Rain,220,2013-12-23 06:56:00
2:23 AM,57.0,55.0,93,30.00,1.0,SW,6.9,-,0.01,Rain,Light Rain,220,2013-12-23 07:23:00
2:43 AM,55.9,53.1,90,29.99,0.8,SW,8.1,-,0.02,Rain,Light Rain,220,2013-12-23 07:43:00
2:56 AM,57.0,55.0,93,29.99,1.0,SW,6.9,-,0.03,Rain,Light Rain,220,2013-12-23 07:56:00
3:18 AM,59.0,57.0,93,29.99,0.8,SW,4.6,-,0.00,Rain,Light Rain,220,2013-12-23 08:18:00
3:21 AM,59.0,57.0,93,29.99,1.0,SW,5.8,-,0.00,Rain,Light Rain,220,2013-12-23 08:21:00
3:56 AM,59.0,57.0,93,29.99,0.8,SW,5.8,-,0.01,Rain,Light Rain,220,2013-12-23 08:56:00
4:45 AM,55.9,55.0,97,29.97,0.5,SSW,5.8,-,0.01,Fog-Rain,Light Rain,210,2013-12-23 09:45:00
4:56 AM,57.0,55.0,93,29.97,0.5,SSW,5.8,-,0.01,Fog-Rain,Light Rain,210,2013-12-23 09:56:00
5:03 AM,57.0,55.0,93,29.96,0.5,SSW,6.9,-,0.00,Fog-Rain,Light Rain,210,2013-12-23 10:03:00
5:43 AM,59.0,57.0,93,29.96,0.8,SSW,4.6,-,0.01,Rain,Light Rain,210,2013-12-23 10:43:00
5:56 AM,59.0,57.0,93,29.98,0.8,SW,4.6,-,0.02,Rain,Light Rain,230,2013-12-23 10:56:00
5:58 AM,60.1,57.9,93,29.98,1.0,WSW,4.6,-,0.00,Rain,Light Rain,240,2013-12-23 10:58:00
6:02 AM,61.0,59.0,93,29.98,2.0,SW,4.6,-,0.00,Rain,Light Rain,230,2013-12-23 11:02:00
6:10 AM,60.1,59.0,96,29.98,1.2,SW,5.8,-,0.00,Rain,Light Rain,220,2013-12-23 11:10:00
6:18 AM,60.1,59.0,96,29.98,0.5,SW,5.8,-,0.00,Fog-Rain,Light Rain,220,2013-12-23 11:18:00
6:31 AM,61.0,59.0,93,29.98,1.2,SW,4.6,-,0.01,Rain,Light Rain,220,2013-12-23 11:31:00
6:38 AM,60.1,59.0,96,29.98,4.0,SW,6.9,-,0.02,Rain,Light Rain,220,2013-12-23 11:38:00
6:53 AM,53.6,51.8,94,29.98,0.5,SSW,5.8,-,0.02,Fog,Fog,210,2013-12-23 11:53:00
6:56 AM,53.1,52.0,96,29.98,0.5,SSW,5.8,-,0.02,Fog,Fog,210,2013-12-23 11:56:00
7:56 AM,57.0,55.9,96,29.98,0.2,SSW,8.1,-,0.00,Fog-Rain,Light Rain,210,2013-12-23 12:56:00
8:56 AM,54.0,52.0,93,29.96,0.2,SW,9.2,-,0.04,Fog-Rain,Light Rain,220,2013-12-23 13:56:00
9:06 AM,55.0,53.1,93,29.96,0.2,SSW,15.0,-,0.01,Fog-Rain,Light Rain,200,2013-12-23 14:06:00
9:41 AM,57.0,55.9,96,29.99,1.5,SSW,10.4,-,0.04,Rain,Light Rain,210,2013-12-23 14:41:00
9:56 AM,54.0,53.1,97,30.00,1.5,SSW,9.2,-,0.07,Rain,Rain,210,2013-12-23 14:56:00
10:03 AM,54.0,53.1,97,30.00,0.8,SSW,8.1,-,0.01,Rain,Rain,210,2013-12-23 15:03:00
10:10 AM,53.1,52.0,96,30.00,1.0,SSW,8.1,-,0.02,Rain,Light Rain,200,2013-12-23 15:10:00
10:54 AM,60.8,59.0,94,30.00,2.0,NW,11.5,-,0.08,Rain,Rain,320,2013-12-23 15:54:00
10:56 AM,60.1,59.0,96,30.00,2.0,WNW,11.5,-,0.08,Rain,Rain,300,2013-12-23 15:56:00
11:26 AM,61.0,59.0,93,29.99,2.0,North,4.6,-,0.03,Rain,Light Rain,10,2013-12-23 16:26:00
11:56 AM,61.0,59.0,93,30.00,4.0,North,4.6,-,0.05,Rain,Light Rain,360,2013-12-23 16:56:00
12:56 PM,57.9,54.0,87,29.99,3.0,Variable,5.8,-,0.09,Rain,Heavy Rain,0,2013-12-23 17:56:00
1:03 PM,57.0,54.0,89,30.02,2.5,Variable,3.5,-,0.02,Rain,Light Rain,0,2013-12-23 18:03:00
1:11 PM,57.9,54.0,87,30.02,8.0,NNW,4.6,-,0.03,Rain,Light Rain,340,2013-12-23 18:11:00
1:56 PM,57.9,53.1,84,30.03,6.0,North,10.4,-,0.06,Rain,Light Rain,350,2013-12-23 18:56:00
2:52 PM,55.4,50.0,82,30.06,9.0,North,20.7,29.9,0.00,Rain,Light Rain,10,2013-12-23 19:52:00
2:56 PM,55.0,48.0,77,30.06,10.0,NNE,17.3,29.9,0.00,Rain,Light Rain,20,2013-12-23 19:56:00
3:09 PM,54.0,46.9,77,30.07,10.0,North,17.3,25.3,0.01,Rain,Light Rain,360,2013-12-23 20:09:00
3:56 PM,53.1,45.0,74,30.09,10.0,North,11.5,-,0.01,Rain,Light Rain,10,2013-12-23 20:56:00
4:56 PM,52.0,41.0,66,30.13,10.0,North,13.8,-,0.00,,Overcast,360,2013-12-23 21:56:00
5:56 PM,50.0,37.9,63,30.15,10.0,North,18.4,27.6,0.01,Rain,Light Rain,360,2013-12-23 22:56:00
6:56 PM,48.0,35.1,61,30.18,10.0,North,16.1,21.9,0.00,,Overcast,10,2013-12-23 23:56:00
7:56 PM,46.9,33.1,59,30.20,10.0,North,16.1,23.0,N/A,,Overcast,360,2013-12-24 00:56:00
8:56 PM,44.1,30.0,58,30.24,10.0,North,12.7,24.2,N/A,,Overcast,360,2013-12-24 01:56:00
9:56 PM,43.0,30.0,60,30.25,10.0,North,10.4,-,N/A,,Overcast,350,2013-12-24 02:56:00
10:56 PM,42.1,28.0,58,30.25,10.0,North,12.7,-,N/A,,Partly Cloudy,10,2013-12-24 03:56:00
11:56 PM,41.0,27.0,57,30.25,10.0,North,15.0,20.7,N/A,,Scattered Clouds,360,2013-12-24 04:56:00